Latest Coastal Weather Observations for Rowley Shoals

IDW60701

Issued at 2:32 pm WST Wednesday 2 September 2015 (issued every 10 minutes, with the page automatically refreshed every 10 minutes)

About coastal observations | Map of coastal stations | Coastal observations for WA | Marine services | Other Formats
Station Details ID: 200713 Name: ROWLEY SHOALS Lat: -17.52 Lon: 118.95 Height: 0.0 m
Data from the previous 72 hours. | See also: Recent months at Rowley Shoals
Date/Time
WST
Temp

°C
Wind Pressure Rain
since 9am
mm
Weather Cloud Vis
km
Sea
Height
m
Swell
Dir
 
Speed
knots
Gust
knots
hPa Trend Height
m
Period
s
Dir
02/02:30pm - SW 5 7 1014.6 - - - - - - - - -
02/02:00pm - SW 5 6 1014.7 - - - - - - - - -
02/01:30pm - SW 4 6 1014.7 - - - - - - - - -
02/01:00pm - SSW 5 6 1014.7 - - - - - - - - -
02/12:30pm - SSW 4 6 1015.0 - - - - - - - - -
02/12:00pm - SSW 5 6 1015.3 - - - - - - - - -
02/11:30am - S 5 7 1016.0 - - - - - - - - -
02/11:00am - S 5 7 1016.3 - - - - - - - - -
02/10:30am - S 7 9 1016.8 - - - - - - - - -
02/10:00am - S 7 10 1016.9 - - - - - - - - -
02/09:30am - S 7 9 1016.8 - - - - - - - - -
02/09:00am - S 8 11 1016.5 - - - - - - - - -
02/08:30am - S 9 11 1016.2 - - - - - - - - -
02/08:00am - S 9 11 1015.9 - - - - - - - - -
02/07:30am - S 9 12 1015.5 - - - - - - - - -
02/07:00am - S 9 11 1015.3 - - - - - - - - -
02/06:30am - S 9 11 1014.9 - - - - - - - - -
02/06:00am - SSW 9 11 1014.6 - - - - - - - - -
02/05:30am - SSW 10 11 1014.2 - - - - - - - - -
02/05:00am - SSW 10 13 1013.9 - - - - - - - - -
02/04:30am - SSW 11 13 1013.7 - - - - - - - - -
02/04:00am - SW 11 13 1013.7 - - - - - - - - -
02/03:30am - SW 12 15 1013.8 - - - - - - - - -
02/03:00am - SW 12 15 1013.9 - - - - - - - - -
02/02:30am - SW 14 16 1013.8 - - - - - - - - -
02/02:00am - SW 14 16 1013.8 - - - - - - - - -
02/01:30am - WSW 15 17 1014.0 - - - - - - - - -
02/01:00am - WSW 15 17 1014.1 - - - - - - - - -
02/12:30am - WSW 14 16 1014.5 - - - - - - - - -
02/12:00am - W 15 17 1014.6 - - - - - - - - -
 
Date/Time
WST
Temp

°C
Wind Pressure Rain
since 9am
mm
Weather Cloud Vis
km
Sea
Height
m
Swell
Dir
 
Speed
knots
Gust
knots
hPa Trend Height
m
Period
s
Dir
01/11:30pm - W 14 16 1015.0 - - - - - - - - -
01/11:00pm - W 12 14 1015.1 - - - - - - - - -
01/10:30pm - W 11 14 1015.2 - - - - - - - - -
01/10:00pm - W 12 14 1015.1 - - - - - - - - -
01/09:30pm - W 11 13 1015.2 - - - - - - - - -
01/09:00pm - W 12 14 1015.2 - - - - - - - - -
01/08:30pm - W 11 13 1015.0 - - - - - - - - -
01/08:00pm - W 12 15 1014.9 - - - - - - - - -
01/07:30pm - W 12 14 1014.6 - - - - - - - - -
01/07:00pm - W 13 14 1014.4 - - - - - - - - -
01/06:30pm - W 13 15 1014.0 - - - - - - - - -
01/06:00pm - W 13 17 1013.7 - - - - - - - - -
01/05:30pm - W 13 16 1013.5 - - - - - - - - -
01/05:00pm - W 13 16 1013.5 - - - - - - - - -
01/04:30pm - W 13 15 1013.3 - - - - - - - - -
01/04:00pm - W 13 14 1013.2 - - - - - - - - -
01/03:30pm - WNW 12 14 1013.1 - - - - - - - - -
01/03:00pm - W 12 15 1013.1 - - - - - - - - -
01/02:30pm - W 12 14 1013.2 - - - - - - - - -
01/02:00pm - W 12 14 1013.4 - - - - - - - - -
01/01:30pm - W 11 13 1013.8 - - - - - - - - -
01/01:00pm - W 10 12 1014.0 - - - - - - - - -
01/12:30pm - W 11 13 1014.4 - - - - - - - - -
01/12:00pm - W 10 11 1014.5 - - - - - - - - -
01/11:30am - W 10 12 1014.9 - - - - - - - - -
01/11:00am - W 10 13 1015.2 - - - - - - - - -
01/10:30am - WSW 9 11 1015.4 - - - - - - - - -
01/10:00am - SW 11 13 1015.6 - - - - - - - - -
01/09:30am - SW 11 14 1015.7 - - - - - - - - -
01/09:00am - SW 12 13 1015.6 - - - - - - - - -
01/08:30am - SW 11 14 1015.6 - - - - - - - - -
01/08:00am - SW 12 14 1015.4 - - - - - - - - -
01/07:30am - SW 13 15 1015.2 - - - - - - - - -
01/07:00am - SW 13 15 1014.9 - - - - - - - - -
01/06:30am - SW 14 16 1014.4 - - - - - - - - -
01/06:00am - SW 14 16 1014.1 - - - - - - - - -
01/05:30am - SW 15 17 1013.8 - - - - - - - - -
01/05:00am - SW 16 19 1013.6 - - - - - - - - -
01/04:30am - SW 18 21 1013.3 - - - - - - - - -
01/04:00am - SW 18 21 1013.3 - - - - - - - - -
01/03:30am - SW 17 20 1013.4 - - - - - - - - -
01/03:00am - SW 15 17 1013.6 - - - - - - - - -
01/02:30am - WSW 15 17 1013.7 - - - - - - - - -
01/02:00am - WSW 14 16 1013.8 - - - - - - - - -
01/01:30am - WSW 13 15 1013.9 - - - - - - - - -
01/01:00am - WSW 13 15 1014.2 - - - - - - - - -
01/12:30am - WSW 13 16 1014.6 - - - - - - - - -
01/12:00am - WSW 13 15 1014.8 - - - - - - - - -
 
Date/Time
WST
Temp

°C
Wind Pressure Rain
since 9am
mm
Weather Cloud Vis
km
Sea
Height
m
Swell
Dir
 
Speed
knots
Gust
knots
hPa Trend Height
m
Period
s
Dir
31/11:30pm - WSW 12 15 1015.1 - - - - - - - - -
31/11:00pm - W 12 15 1015.3 - - - - - - - - -
31/10:30pm - W 12 15 1015.5 - - - - - - - - -
31/10:00pm - WSW 12 14 1015.6 - - - - - - - - -
31/09:30pm - W 12 15 1015.7 - - - - - - - - -
31/09:00pm - W 12 14 1015.8 - - - - - - - - -
31/08:30pm - W 12 14 1015.6 - - - - - - - - -
31/08:00pm - W 12 14 1015.5 - - - - - - - - -
31/07:30pm - W 12 14 1015.1 - - - - - - - - -
31/07:00pm - W 12 14 1015.0 - - - - - - - - -
31/06:30pm - W 12 15 1014.6 - - - - - - - - -
31/06:00pm - WSW 13 15 1014.4 - - - - - - - - -
31/05:30pm - WSW 13 15 1014.3 - - - - - - - - -
31/05:00pm - WSW 12 15 1014.2 - - - - - - - - -
31/04:30pm - WSW 13 16 1014.1 - - - - - - - - -
31/04:00pm - WSW 13 15 1014.0 - - - - - - - - -
31/03:30pm - WSW 14 16 1013.9 - - - - - - - - -
31/03:00pm - WSW 13 16 1014.1 - - - - - - - - -
31/02:30pm - WSW 13 15 1014.3 - - - - - - - - -
31/02:00pm - WSW 13 15 1014.5 - - - - - - - - -
31/01:30pm - WSW 13 15 1014.9 - - - - - - - - -
31/01:00pm - WSW 13 15 1015.1 - - - - - - - - -
31/12:30pm - WSW 13 15 1015.4 - - - - - - - - -
31/12:00pm - W 12 14 1015.5 - - - - - - - - -
31/11:30am - W 13 15 1015.9 - - - - - - - - -
31/11:00am - WSW 13 15 1016.1 - - - - - - - - -
31/10:30am - WSW 12 14 1016.6 - - - - - - - - -
31/10:00am - WSW 12 15 1016.6 - - - - - - - - -
31/09:30am - WSW 13 15 1016.7 - - - - - - - - -
31/09:00am - WSW 12 14 1016.6 - - - - - - - - -
31/08:30am - WSW 13 16 1016.3 - - - - - - - - -
31/08:00am - WSW 13 16 1016.0 - - - - - - - - -
31/07:30am - WSW 13 15 1015.9 - - - - - - - - -
31/07:00am - WSW 13 15 1015.8 - - - - - - - - -
31/06:30am - WSW 12 14 1015.4 - - - - - - - - -
31/06:00am - WSW 12 15 1015.2 - - - - - - - - -
31/05:30am - WSW 12 14 1015.0 - - - - - - - - -
31/05:00am - WSW 11 13 1014.9 - - - - - - - - -
31/04:30am - WSW 11 13 1014.9 - - - - - - - - -
31/04:00am - WSW 11 13 1014.8 - - - - - - - - -
31/03:30am - WSW 11 13 1015.0 - - - - - - - - -
31/03:00am - SW 12 14 1015.0 - - - - - - - - -
31/02:30am - SW 13 15 1015.4 - - - - - - - - -
31/02:00am - SW 12 14 1015.7 - - - - - - - - -
31/01:30am - WSW 10 12 1016.0 - - - - - - - - -
31/01:00am - WSW 9 11 1016.0 - - - - - - - - -
31/12:30am - SW 11 12 1016.4 - - - - - - - - -
31/12:00am - WSW 10 12 1016.7 - - - - - - - - -
 
Date/Time
WST
Temp

°C
Wind Pressure Rain
since 9am
mm
Weather Cloud Vis
km
Sea
Height
m
Swell
Dir
 
Speed
knots
Gust
knots
hPa Trend Height
m
Period
s
Dir
30/11:30pm - WSW 10 12 1016.9 - - - - - - - - -
30/11:00pm - SW 10 13 1017.0 - - - - - - - - -
30/10:30pm - WSW 10 12 1017.0 - - - - - - - - -
30/10:00pm - SW 11 13 1017.1 - - - - - - - - -
30/09:30pm - SW 10 11 1017.1 - - - - - - - - -
30/09:00pm - SW 10 13 1017.0 - - - - - - - - -
30/08:30pm - SW 11 13 1016.7 - - - - - - - - -
30/08:00pm - SW 11 13 1016.6 - - - - - - - - -
30/07:30pm - SW 11 13 1016.4 - - - - - - - - -
30/07:00pm - SW 12 14 1016.2 - - - - - - - - -
30/06:30pm - WSW 12 15 1015.8 - - - - - - - - -
30/06:00pm - SW 13 16 1015.5 - - - - - - - - -
30/05:30pm - SW 13 15 1015.4 - - - - - - - - -
30/05:00pm - SW 15 17 1015.3 - - - - - - - - -
30/04:30pm - SW 16 19 1015.0 - - - - - - - - -
30/04:00pm - SW 16 18 1014.9 - - - - - - - - -
30/03:30pm - SW 16 19 1014.8 - - - - - - - - -
30/03:00pm - SW 17 19 1014.8 - - - - - - - - -

Other Formats:

Comma delimited format used in spreadsheet applications
http://www.bom.gov.au/fwo/IDW60701/IDW60701.94207.axf

JavaScript Object Notation format (JSON) in row-major order
http://www.bom.gov.au/fwo/IDW60701/IDW60701.94207.json